FW2134 Weather Reports


Display with metric or nautical units.
time (UTC)temp
F
wind
direction
speed
MPH
gust
MPH
rain 1hr
in
rain 24hr
in
rain mn
in
humidity
%
barometer
mb
20260503033018 52 339 1.0 0.0 0.00 0.00 0.00 39 1010.1
20260503031520 52 271 1.0 0.0 0.00 0.00 0.00 38 1010.1
20260503030017 53 295 1.0 0.0 0.00 0.00 0.00 37 1010.2
20260503024517 53 320 1.0 0.0 0.00 0.00 0.00 35 1010.1
20260503023017 53 315 2.0 0.0 0.00 0.00 0.00 35 1010.0
20260503021517 54 336 2.0 0.0 0.00 0.00 0.00 35 1010.1
20260503020016 54 246 1.0 0.0 0.00 0.00 0.00 35 1010.2
20260503014518 54 278 2.0 0.0 0.00 0.00 0.00 35 1010.2
20260503013018 54 335 1.0 0.0 0.00 0.00 0.00 35 1010.1
20260503011516 55 335 2.0 0.0 0.00 0.00 0.00 34 1010.0
20260503010016 55 315 2.0 0.0 0.00 0.00 0.00 34 1009.8
20260503004515 55 288 2.0 0.0 0.00 0.00 0.00 34 1009.6
20260503003017 55 327 1.0 0.0 0.00 0.00 0.00 34 1009.4
20260503001516 56 330 0.0 0.0 0.00 0.00 0.00 36 1009.3
20260503000016 57 213 2.0 0.0 0.00 0.00 0.00 35 1009.3
20260502234515 57 203 4.0 0.0 0.00 0.00 0.00 34 1009.3
20260502233015 58 199 2.0 0.0 0.00 0.00 0.00 35 1009.2
20260502231519 58 191 3.0 0.0 0.00 0.00 0.00 33 1009.1
20260502230014 59 193 3.0 0.0 0.00 0.00 0.00 33 1009.0
20260502224513 59 191 4.0 0.0 0.00 0.00 0.00 34 1008.9
20260502223015 59 202 4.0 0.0 0.00 0.00 0.00 33 1009.1
20260502221513 60 192 4.0 0.0 0.00 0.00 0.00 35 1009.0
20260502220013 60 164 3.0 0.0 0.00 0.00 0.00 33 1009.0
20260502214523 59 200 4.0 0.0 0.00 0.00 0.00 33 1008.9
20260502213013 61 188 3.0 0.0 0.00 0.00 0.00 32 1008.7
20260502211526 61 195 6.0 0.0 0.00 0.00 0.00 31 1008.6
20260502210011 60 191 3.0 0.0 0.00 0.00 0.00 36 1008.7
20260502204511 60 202 4.0 0.0 0.00 0.00 0.00 34 1008.7
20260502203010 61 216 4.0 0.0 0.00 0.00 0.00 31 1008.8
20260502201510 62 202 3.0 0.0 0.00 0.00 0.00 31 1009.0
20260502200012 62 210 3.0 0.0 0.00 0.00 0.00 31 1009.2
20260502194512 61 229 3.0 0.0 0.00 0.00 0.00 32 1009.5
20260502193012 61 205 6.0 0.0 0.00 0.00 0.00 35 1009.7
20260502191514 63 202 4.0 0.0 0.00 0.00 0.00 38 1009.9
20260502190108 62 176 4.0 0.0 0.00 0.00 0.00 37 1009.9
20260502184601 60 202 4.0 0.0 0.00 0.00 0.00 39 1010.1
20260502183055 59 220 3.0 0.0 0.00 0.00 0.00 41 1010.3
20260502181556 59 254 1.0 0.0 0.00 0.00 0.00 42 1010.4
20260502180119 61 213 4.0 0.0 0.00 0.00 0.00 43 1010.4
20260502163039 58 161 4.0 0.0 0.00 0.00 0.00 55 1011.2
20260502161536 57 207 5.0 0.0 0.00 0.00 0.00 56 1011.1
20260502151527 53 171 3.0 0.0 0.00 0.00 0.00 65 1011.4
20260502123024 51 169 3.0 0.0 0.00 0.00 0.00 77 1011.4
20260502121527 51 188 2.0 0.0 0.00 0.00 0.00 80 1011.3
20260502114522 50 196 1.0 0.0 0.00 0.00 0.00 83 1011.3
20260502113021 50 196 1.0 0.0 0.00 0.00 0.00 84 1011.2
20260502111524 50 196 2.0 0.0 0.00 0.00 0.00 85 1010.9
20260502110019 50 117 0.0 0.0 0.00 0.00 0.00 86 1010.9
20260502104525 49 76 0.0 0.0 0.00 0.00 0.00 86 1010.7
20260502103017 49 75 0.0 0.0 0.00 0.00 0.00 84 1010.3
20260502101517 49 76 0.0 0.0 0.00 0.00 0.00 84 1010.2
20260502091514 50 172 1.0 0.0 0.00 0.00 0.00 81 1010.8
20260502071506 51 138 4.0 0.0 0.00 0.00 0.00 75 1010.5
20260502070004 52 137 5.0 0.0 0.00 0.00 0.00 74 1010.4
20260502064501 52 140 3.0 0.0 0.00 0.00 0.00 72 1010.7
20260502063002 52 116 4.0 0.0 0.00 0.00 0.00 71 1010.9
20260502061600 52 131 4.0 0.0 0.00 0.00 0.00 70 1011.2
20260502060110 52 127 4.0 0.0 0.00 0.00 0.00 69 1011.1
20260502054555 52 145 1.0 0.0 0.00 0.00 0.00 69 1010.9
20260502053101 52 131 4.0 0.0 0.00 0.00 0.00 67 1011.0
20260502051600 52 131 2.0 0.0 0.00 0.00 0.00 66 1010.9
20260502050057 53 137 3.0 0.0 0.00 0.00 0.00 66 1010.8
20260502044550 53 135 2.0 0.0 0.00 0.00 0.00 65 1010.8
20260502043052 53 133 2.0 0.0 0.00 0.00 0.00 65 1010.9
20260502041549 53 117 3.0 0.0 0.00 0.00 0.00 65 1011.0
20260502040048 53 137 3.0 0.0 0.00 0.00 0.00 64 1010.9
20260502034545 53 128 3.0 0.0 0.00 0.00 0.00 64 1010.8